Location: Chippewa Lake
(41.0698°N, 81.9010°W)
Time: 10:48:15
(UTC+00:00)

Envisat - Pass Details

Date: 29 May 2023
Orbit: 763 x 764 km, 98.2° (Epoch: 21 September)

Event Time Altitude Azimuth Distance (km) Brightness Sun altitude
Rises 08:55:47 0° 18° (NNE) 3,236 7.4 -10.5°
Reaches altitude 10° 08:58:11 10° 24° (NNE) 2,306 6.6 -10.2°
Maximum altitude 09:03:06 50° 100° (E) 974 3.9 -9.5°
Drops below altitude 10° 09:08:00 10° 175° (S) 2,291 5.1 -8.8°
Sets 09:10:21 0° 180° (S) 3,213 5.8 -8.4°
